Terra - Orbit

View from above orbital plane
View from above orbital plane
View from above satellite
View from above satellite

Ground track
Ground track

The orbit data is extracted from the following two-line orbital elements,

1 25994U 99068A   13145.18770636  .00000436  00000-0  10680-3 0  1479
2 25994 098.2084 220.4564 0001323 105.0716 255.0642 14.57096764714560
Epoch (UTC): 25 May 2013 04:30:17
Eccentricity: 0.0001323
inclination: 98.2084°
perigee height: 701 km
apogee height: 703 km
right ascension of ascending node: 220.4564°
argument of perigee: 105.0716°
revolutions per day: 14.57096764
mean anomaly at epoch: 255.0642°
orbit number at epoch: 71456

The dashed part of the orbit path shows where the satellite is in the earth's shadow,  

Developed and maintained by Chris Peat, Heavens-Above GmbH. Please read the updated FAQ before sending e-mail. Imprint. DLR